VNREDSAT 1

Last updated on Fri Oct 04 2024 00:02:25 GMT+0000 (Coordinated Universal Time)

1 39160U 13021B 24277.53583565 .00004188 00000+0 80728-3 0 9996 2 39160 97.9862 341.1219 0001141 90.4746 269.6588 14.64022656609285
UTC large
Height (km)
Speed (km/s)
/
Latitude / Longitude
Inclination (degrees)
Orbital Period (minutes)
Azimuth
Elevation
Range (km)
Doppler Factor

Next 0 passes for location: London (51.5072 / 0.1276)

Sorry there are no passes over London.